Theta_e
308 308 309 309 309 309 309 309 310 311 311 311 311 311 311 309 308 307 302 304 309 316 321 325 328 329 329 327 326 327 330 328 330 327 327 326 331 331 331 331 331 331 330 330 329
308 308 308 309 309 309 309 309 309 309 311 312 312 313 313 312 311 310 308 302 303 310 319 326 328 328 328 327 326 327 329 327 326 323 326 324 328 332 333 332 333 331 329 330 328
308 308 308 310 310 310 310 310 310 312 313 313 311 311 312 313 312 311 310 306 302 304 313 321 322 327 327 327 327 327 329 326 321 322 322 325 330 331 333 334 333 332 331 329 327
308 308 309 310 310 311 312 312 313 313 313 312 312 312 312 312 315 309 308 304 302 303 312 314 319 326 326 328 327 328 326 324 320 322 322 328 329 331 332 331 329 331 330 329 327
305 308 309 310 308 309 310 312 312 312 313 313 314 311 311 312 311 311 312 313 310 308 312 314 318 326 327 327 326 328 325 323 322 321 320 326 328 330 330 330 329 331 331 329 327
305 308 309 308 308 309 311 311 313 314 313 313 312 312 311 311 309 309 309 307 313 307 312 313 318 325 326 326 327 325 324 323 323 322 321 327 325 325 328 329 330 330 331 330 328
304 306 309 309 308 309 310 312 313 312 312 313 312 312 311 311 310 310 309 310 311 311 310 311 320 320 325 325 322 324 325 324 323 322 324 324 327 327 325 330 329 328 327 329 329
301 304 308 310 308 308 310 308 311 312 312 311 313 312 312 310 309 310 311 311 312 316 311 310 317 318 324 323 323 326 326 328 325 324 321 324 330 325 327 329 328 328 327 327 331
297 300 304 309 309 308 309 309 308 311 312 311 313 312 311 311 311 310 309 310 314 315 313 312 315 317 322 327 328 327 331 330 327 325 324 325 329 323 328 329 329 328 329 329 329
298 297 299 304 308 308 308 308 308 311 312 311 312 310 311 311 311 310 312 312 313 315 313 313 315 319 326 328 331 330 330 329 329 325 325 326 328 320 325 328 329 329 329 330 330
301 299 298 298 301 304 307 305 305 311 311 313 313 312 311 313 313 310 313 315 313 313 313 312 314 322 328 327 327 327 328 329 326 323 326 327 327 325 319 325 327 328 330 329 330
305 302 300 298 298 301 305 304 304 305 308 311 312 311 312 313 313 315 314 314 312 315 312 312 315 321 326 326 326 327 328 327 323 323 326 327 328 326 325 321 324 325 327 328 329
315 307 303 299 299 304 304 304 305 303 308 311 310 311 313 314 315 314 316 313 314 314 313 314 313 314 325 326 327 327 328 325 327 322 321 324 330 328 326 320 318 320 324 325 327
315 315 309 303 302 300 304 304 305 306 313 311 312 312 314 314 315 315 316 316 317 316 315 314 313 316 324 327 326 328 326 326 324 327 331 325 332 329 327 325 318 318 317 320 322
315 314 314 309 300 300 302 303 306 307 322 310 311 312 313 314 314 315 314 315 318 318 317 317 318 318 321 325 324 326 323 324 324 327 327 325 330 327 324 327 325 319 318 318 320
315 314 314 313 306 300 299 303 305 317 319 312 310 313 314 313 314 314 315 314 314 315 315 314 312 314 319 322 322 321 320 320 320 323 328 327 328 329 327 325 324 320 318 317 317
316 315 314 314 309 301 299 303 315 321 307 313 312 313 314 312 314 315 315 315 318 319 317 315 314 312 312 321 321 323 324 324 326 326 330 320 327 327 324 320 321 322 320 317 315
315 315 314 313 313 304 300 306 311 303 306 308 310 313 316 312 314 315 316 317 314 316 318 321 319 311 311 316 322 324 325 328 328 328 326 316 326 326 318 314 314 316 316 315 314
315 315 315 313 313 303 303 317 312 302 306 310 311 314 315 314 314 315 315 316 313 312 320 319 315 307 311 312 315 318 324 316 318 311 322 323 320 317 310 311 311 312 312 312 312
314 314 314 312 308 299 307 313 302 300 305 307 313 311 315 314 315 315 316 312 313 310 310 313 316 308 311 312 312 316 313 321 318 328 328 322 317 323 313 309 309 311 311 312 312
313 312 309 308 299 302 312 307 301 301 304 308 310 310 311 313 313 315 315 312 312 311 312 313 316 312 312 313 314 313 315 314 317 320 327 326 325 312 309 308 308 308 310 311 311
313 305 306 302 303 293 304 297 299 302 303 306 305 307 309 312 313 314 313 312 308 311 315 312 313 316 312 307 308 312 315 316 326 321 316 316 323 307 308 309 308 307 308 310 310
310 307 302 300 308 304 295 299 299 302 304 306 307 305 304 307 311 311 310 304 307 309 310 311 313 316 314 311 310 313 312 314 310 311 316 319 321 306 308 309 310 309 309 309 308
309 303 300 300 301 303 301 302 302 299 302 304 305 304 305 305 305 308 307 306 306 306 305 306 310 313 318 314 313 314 314 314 315 315 316 317 319 313 309 308 310 309 308 308 307
309 304 304 302 301 300 301 300 301 302 301 302 305 305 306 304 304 306 305 306 304 306 304 306 310 306 306 306 308 310 311 313 314 316 318 319 315 317 317 311 309 310 308 307 307
308 303 301 299 299 301 302 302 302 301 302 304 304 304 304 305 306 306 306 307 311 304 305 302 309 303 305 301 302 304 306 311 312 313 315 315 315 314 313 309 307 308 307 307 308
308 307 307 300 298 302 302 304 302 302 301 302 303 304 303 303 301 300 300 300 303 306 305 305 304 307 314 296 297 306 303 306 309 311 313 315 314 312 311 311 309 309 307 307 309
Wind_Speed
14 15 16 15 13 12 11 10 8 9 11 12 14 14 11 12 16 17 21 26 25 17 17 18 22 27 29 19 22 13 4 12 18 16 6 5 6 4 2 9 5 5 5 6 27
13 16 19 18 15 12 12 12 11 12 14 13 14 17 18 15 17 25 24 19 23 25 22 15 26 31 21 21 18 12 13 19 10 6 8 8 6 7 5 9 5 5 7 19 30
11 16 17 17 16 16 14 12 11 12 13 13 15 13 12 13 16 15 19 16 20 26 27 35 10 31 18 21 18 18 19 14 9 4 7 7 7 5 5 7 7 10 17 25 30
11 14 15 15 16 17 15 14 12 13 14 13 12 10 7 12 7 2 3 10 22 23 21 29 21 17 8 11 23 15 23 18 10 4 5 10 10 4 8 1 4 6 17 29 31
11 12 13 14 16 16 17 16 16 14 16 10 12 11 6 13 15 9 1 4 12 21 22 26 25 14 8 13 17 15 17 17 11 6 3 11 7 1 6 3 4 10 20 29 27
11 11 12 13 15 16 17 14 16 14 13 11 10 9 9 11 14 18 18 15 12 20 20 29 18 13 18 14 15 11 13 14 11 6 5 8 6 4 3 3 6 14 21 25 26
11 12 12 12 12 16 18 11 10 12 15 14 12 7 11 17 13 12 13 12 14 21 23 31 15 19 9 11 13 23 9 5 8 8 5 9 4 5 4 5 9 14 19 22 24
11 12 13 13 13 14 16 15 12 18 18 16 11 11 9 11 14 22 14 13 14 20 20 38 21 31 15 20 10 7 9 11 11 11 2 5 14 8 8 9 10 13 18 22 22
12 12 13 13 15 17 18 22 19 16 14 9 8 8 7 11 13 18 22 21 15 16 18 18 23 24 14 17 6 6 9 9 9 12 4 4 8 9 9 9 9 11 15 17 17
15 14 14 15 16 19 19 19 15 10 10 6 6 7 9 9 17 16 19 21 17 16 11 10 8 14 13 16 20 14 8 15 6 11 12 11 13 7 10 10 12 13 14 18 19
15 16 17 16 17 20 19 17 8 3 6 5 6 9 20 15 19 20 20 20 17 13 6 13 8 14 25 21 13 12 12 11 3 2 15 21 18 13 13 13 14 14 16 17 21
17 17 18 18 16 17 16 9 7 8 9 7 10 11 18 16 8 12 29 10 18 16 12 2 11 14 18 14 17 16 14 7 4 4 7 15 26 20 18 19 21 19 19 21 20
17 19 19 19 15 12 14 12 13 8 4 5 5 5 11 13 7 8 9 23 15 17 16 8 9 19 12 10 12 9 15 7 6 5 1 5 15 22 16 20 20 22 20 19 23
15 19 20 20 9 16 10 15 13 6 3 2 1 2 10 5 4 11 8 12 8 14 9 5 9 13 5 10 13 5 8 12 13 6 3 7 4 11 17 18 18 25 25 27 25
12 16 20 19 16 12 15 15 11 3 5 8 4 6 7 4 6 9 7 6 9 13 8 4 7 12 6 8 6 3 5 11 8 7 5 6 3 5 5 15 21 27 32 33 33
10 12 14 19 19 14 15 14 5 2 4 5 5 6 5 9 10 6 7 10 10 7 4 4 2 3 3 5 5 11 9 6 4 3 5 11 9 5 8 16 15 21 28 32 30
12 9 13 13 17 17 14 7 2 2 2 7 4 5 2 5 5 6 4 4 2 6 3 1 3 3 4 6 9 5 11 2 2 3 4 2 9 11 8 10 14 13 22 26 26
15 13 12 13 16 16 12 1 1 1 4 3 4 4 3 5 2 4 1 3 3 3 3 4 2 5 5 2 3 13 11 5 6 5 3 2 6 6 4 9 8 9 8 15 22
15 17 14 13 16 11 4 2 3 4 0 3 5 2 2 1 2 1 1 2 2 2 4 6 4 4 3 2 1 3 5 4 5 2 1 5 5 13 5 9 9 5 7 15 20
16 16 15 14 8 3 3 5 2 2 1 2 2 1 2 1 2 1 2 2 0 1 3 2 6 3 4 3 10 2 5 3 1 6 5 3 4 3 2 5 3 7 12 15 17
15 7 8 9 7 3 2 5 3 4 3 2 1 2 3 2 3 2 2 2 2 2 2 3 3 1 3 2 4 2 3 3 3 1 2 2 1 1 6 9 11 10 12 15 18
22 2 10 13 3 1 3 5 2 3 4 3 2 4 3 3 4 2 2 1 3 1 3 2 4 3 1 3 2 2 4 4 3 4 1 2 2 0 6 8 10 12 9 14 18
8 6 11 18 4 3 1 3 3 4 4 3 3 3 1 2 2 2 2 2 1 3 2 1 2 4 1 2 0 3 4 3 5 2 6 4 3 4 6 6 4 3 5 11 15
12 2 4 11 5 4 4 4 4 5 2 3 1 2 1 2 1 2 3 1 2 3 4 1 2 1 1 2 4 5 6 9 5 4 4 7 9 8 9 5 3 3 6 10 15
19 6 9 5 6 5 5 6 5 5 3 3 2 5 4 3 3 2 1 3 3 3 1 1 2 1 3 4 2 1 4 12 11 14 8 7 15 20 13 6 3 5 8 12 17
11 7 8 5 4 9 7 8 9 4 7 5 4 6 8 4 4 3 3 2 1 2 1 2 1 2 4 6 5 4 9 10 15 15 21 15 22 15 18 12 6 7 13 19 25
24 13 9 11 5 5 6 7 10 8 7 6 7 4 6 8 4 2 4 6 3 2 3 3 4 2 0 4 4 7 12 17 9 11 14 11 12 10 9 8 10 13 18 20 24
Wind_Direction
21 17 12 4 355 352 348 335 322 315 311 304 303 300 290 282 285 272 252 235 228 221 220 230 213 201 198 204 200 193 211 212 216 209 182 172 190 156 146 147 165 183 162 170 165
14 12 7 5 5 353 337 327 329 323 311 300 292 285 284 288 282 270 265 247 230 224 217 212 204 187 187 199 194 192 205 205 197 192 178 171 175 167 164 166 180 166 168 157 164
5 9 1 1 7 4 358 351 335 321 317 310 311 286 266 269 281 274 271 249 227 227 224 221 269 182 199 190 191 200 214 195 175 166 189 160 139 173 170 205 203 192 167 168 169
357 360 354 2 6 4 358 354 335 334 328 310 298 303 270 222 250 307 315 232 212 219 229 237 254 177 179 177 186 192 211 187 154 162 188 165 138 172 199 83 197 188 180 174 174
354 354 354 6 5 356 348 340 333 330 316 310 303 282 230 206 237 229 218 301 226 209 222 225 236 199 168 166 169 208 189 187 144 133 230 151 125 137 213 272 230 170 171 178 179
346 350 349 359 360 355 345 334 329 334 325 325 315 256 203 243 265 255 249 261 257 211 216 213 232 257 171 163 172 161 164 156 144 149 232 172 117 126 209 222 156 170 175 181 187
335 345 341 346 358 359 0 348 341 351 342 314 307 275 235 247 258 254 225 252 255 214 212 207 238 302 201 150 139 137 125 138 166 181 209 146 131 208 176 172 168 174 178 187 194
327 334 335 330 333 343 349 346 292 306 328 306 290 268 248 267 267 250 232 265 241 210 220 217 237 307 216 141 131 124 149 180 182 190 212 234 190 182 182 172 174 181 184 194 200
331 323 327 325 319 321 330 327 321 282 306 289 282 253 263 264 275 257 250 260 217 222 205 199 238 288 159 154 136 187 184 172 171 208 153 205 210 174 180 179 185 193 191 196 202
348 338 320 319 320 319 328 329 318 280 276 277 271 302 259 275 279 258 244 235 177 172 153 196 263 266 163 168 188 169 148 188 161 196 206 202 234 183 194 195 202 201 190 197 202
347 348 342 318 321 325 331 350 340 291 261 248 275 264 299 309 288 272 230 169 159 161 129 181 282 264 169 179 172 155 144 145 124 214 204 222 226 212 196 205 209 211 205 205 211
346 346 346 340 326 328 341 12 346 297 308 269 272 293 335 327 306 103 149 120 147 150 117 341 255 305 162 153 154 150 154 137 93 144 188 220 229 225 226 225 221 219 215 213 212
342 342 344 344 338 340 342 356 338 322 262 279 275 297 332 331 337 4 170 141 142 138 153 214 262 314 149 143 143 158 164 156 142 125 155 215 229 230 225 224 223 226 225 219 214
330 337 340 345 348 342 341 337 337 345 283 12 287 289 341 330 298 17 109 149 169 153 125 246 276 276 197 164 158 141 192 160 133 155 221 217 275 228 228 220 217 217 220 222 216
326 326 333 341 337 337 331 330 331 356 323 8 337 336 349 7 323 8 45 30 66 125 155 159 215 212 268 145 108 97 133 135 156 178 188 176 251 239 231 243 236 221 218 221 222
298 317 330 330 332 330 328 330 327 247 288 7 326 356 2 0 358 6 16 69 94 91 90 161 226 17 356 77 108 129 86 63 79 120 237 190 200 241 199 229 241 231 226 223 217
292 303 320 325 320 321 327 337 308 81 22 343 340 358 17 359 351 4 17 41 94 130 152 147 34 13 355 111 150 168 126 113 144 201 231 49 202 249 225 229 232 243 232 223 213
281 294 296 315 312 315 330 21 308 142 265 328 310 321 26 21 19 326 84 105 17 51 109 134 162 349 348 1 177 166 175 175 184 199 159 97 227 247 239 277 276 259 240 209 208
273 283 281 297 303 303 358 328 220 217 324 313 308 292 131 358 283 315 24 92 50 337 149 165 120 289 38 57 27 190 199 24 100 45 148 193 232 275 279 259 249 251 198 200 201
261 270 270 274 265 257 87 257 245 250 272 169 275 301 301 5 197 44 19 323 195 319 277 153 105 18 322 245 36 69 120 104 335 165 221 194 260 243 12 330 289 239 226 205 196
243 246 231 213 198 156 195 227 248 243 248 207 231 280 294 339 343 7 31 45 341 318 44 100 69 125 269 1 160 84 119 70 105 256 250 283 181 272 296 302 290 272 235 212 197
225 215 196 185 152 129 193 192 197 234 213 265 225 218 221 209 181 191 139 95 347 325 59 23 101 111 147 240 266 93 149 169 175 184 246 324 268 177 303 306 298 286 245 207 201
212 191 190 180 177 207 183 235 238 196 219 195 267 185 108 242 222 203 156 18 37 47 59 82 113 122 129 191 63 192 187 159 90 37 195 180 183 186 238 305 327 295 202 190 187
195 168 189 187 237 166 163 204 204 213 242 233 255 328 1 278 205 223 150 65 73 107 63 106 99 356 114 74 129 182 181 184 176 173 166 229 270 237 233 263 280 218 192 192 193
194 212 175 175 225 193 179 155 164 191 228 221 198 228 183 300 337 258 158 135 95 136 75 108 119 154 93 54 43 342 199 190 205 218 222 253 236 248 270 252 222 196 183 191 195
169 169 153 161 151 170 185 203 184 168 153 218 202 200 196 200 235 274 169 253 150 52 81 355 95 35 33 31 21 302 252 215 226 238 247 261 277 272 270 268 254 205 199 203 207
208 207 192 161 153 160 198 182 196 158 218 178 166 153 205 211 173 51 71 56 79 143 123 109 131 116 274 11 346 280 230 206 203 204 225 222 239 280 290 276 268 250 235 233 234